User: anonymous   Login
Location: Unspecified
(0.0000°N, 0.0000°E)
Time: 10:04:02
(UTC+00:00)
Language:

STARLINK-35922 - Orbit

View from above orbital plane
View from above orbital plane
View from above satellite
View from above satellite

Ground track
Ground track

The orbit is defined by the following mean orbital elements,

1 66502U          26144.72189757 +.00000000 +00000-0 +56086-3 0 00003
2 66502  42.9998 281.5989 0001422 273.7166  86.3523 15.27588191    09
Epoch (UTC): 24 May 2026 17:19:31
Eccentricity: 0.0001422
inclination: 42.9998°
perigee height: 482 km
apogee height: 484 km
right ascension of ascending node: 281.5989°
argument of perigee: 273.7166°
revolutions per day: 15.27588191
mean anomaly at epoch: 86.3523°

The dashed part of the orbit path shows where the satellite is in the earth's shadow,  

DLR